Find Kosmos-409

NORAD ID: 5180 Int'l Des: 1971-038 Owner: OKB10 Country: SU operational
LEOCIRCULAR

Live-Position

3D-Globus wird geladen...

Über Kosmos-409

Beschreibung wird geladen...

Nächste Überflüge

Passes for default location (London). Set your location on the main map for personalized predictions.

Höhenverlauf

Loading altitude history...

Zweizeiliger Elementsatz

1 5180U 71038A 26120.02677368 -.00000227 00000-0 -53095-3 0 9991
2 5180 74.0002 86.0279 0023020 342.4633 82.4675 13.17843991645905
Epoch: 30. Apr. 2026 • Age: 9 hours

Aktueller Status

Höhe 1183.8 km
Geschwindigkeit 7.27 km/s
Subsatellitenpunkt -23.01°S, 80.65°E
Typ other

Most Searched